sat.trackr.live / text

‹ back to catalog

2022-023E

NORAD 51950 · 2022-023E

PAYLOAD ACTIVE UNKNOWN

§ Identity

Operator
Country
PRC
Launch date
2022-03-05
Launch site
XICLF
Launch vehicle
Mass (kg)
RCS (m²)

External: N2YO · Heavens-Above · Gunter

§ Orbital elements

Epoch: 2026-05-25T04:50:28.818816Z

Period
106.17 min
Inclination
63.4634°
Eccentricity
0.0157964
Mean motion
13.56283030 rev/d
Perigee alt
931.9 km
Apogee alt
1,166.6 km
Semi-major
7,427.4 km
B*
1.0765e-4
RAAN
13.5450°
Arg perigee
348.6805°
Mean anomaly
11.0690°
Rev number
21,891

§ Raw data

2022-023E1 51950U 22023E   26145.20172244 -.00000010  00000+0  10765-3 0  99922 51950  63.4634  13.5450 0157964 348.6805  11.0690 13.56283030218911

JSON: /api/v1/satellites/51950 · /tle

For live sub-satellite position, see the globe view (requires WebGL).

§ Visibility from observer

Set your observer location to see the next 7 days of passes ≥ 10°. The values pass through the URL so the page stays shareable.

No JS? Fill the form by hand. The geolocation button needs JavaScript.